Dublin, Ireland

3:20 AM IST on October 18, 2017 (GMT +0100)
Dublin International

Weather History for EIDW - August, 2013

Change the Weather History Date:

Tuesday, August 6, 2013

  Actual Average Record
Temperature  
Mean Temperature 59 °F -  
Max Temperature 66 °F 64 °F 77 °F (2003)
Min Temperature 52 °F 51 °F 48 °F (2015)
Degree Days  
Heating Degree Days 6    
Growing Degree Days 9 (Base 50)    
Moisture  
Dew Point 51 °F    
Average Humidity 75    
Maximum Humidity 88    
Minimum Humidity 54    
Precipitation  
Precipitation 0.00 in 0.09 in - ()
Sea Level Pressure  
Sea Level Pressure 29.96 in    
Wind  
Wind Speed 7 mph ()    
Max Wind Speed 13 mph    
Max Gust Speed -    
Visibility 6.5 miles    
Events Rain    
Averages and records for this station are not official NWS values.
T = Trace of Precipitation, MM = Missing Value Source: Averaged Metar Reports

Daily Weather History Graph

Daily Weather History Graph

Search for Another Location

Airport or City:

Trip Planner

Search our weather history database for the weather conditions in past years. The results will help you decide how hot, cold, wet, or windy it might be!

Date:

Astronomy

Aug. 06, 2013 Rise Set
Actual Time 5:49 AM IST 9:11 PM IST
Civil Twilight 5:07 AM IST 9:53 PM IST
Nautical Twilight 4:10 AM IST 10:49 PM IST
Astronomical Twilight 2:46 AM IST 12:10 AM IST
Moon 5:34 AM IST (8/6) 8:26 PM IST (8/6)
Length of Visible Light 16h 45m
Length of Day
15h 21m
Waning Crescent, 0% of the Moon is Illuminated
Aug 6
Waning Crescent
Aug 6
New
Aug 14
First Quarter
Aug 21
Full
Aug 28
Last Quarter

Hourly Weather History & Observations

Time (IST) Temp. Dew Point Humidity Pressure Visibility Wind Dir Wind Speed Gust Speed Precip Events Conditions
12:00 AM 53.6 °F 50.0 °F 88% 29.98 in 6.2 mi West 4.6 mph - N/A   Mostly Cloudy
12:30 AM 53.6 °F 50.0 °F 88% 29.98 in 6.2 mi West 4.6 mph - N/A   Mostly Cloudy
1:00 AM 55 °F 49 °F 73% 29.99 in 25 mi West 4.5 mph - -   Mostly Cloudy
1:00 AM 55.4 °F 48.2 °F 77% 29.98 in 6.2 mi West 4.6 mph - N/A   Mostly Cloudy
1:30 AM 55.4 °F 48.2 °F 77% 29.98 in 6.2 mi West 4.6 mph - N/A   Mostly Cloudy
2:00 AM 57.2 °F 48.2 °F 72% 29.98 in 6.2 mi WSW 5.8 mph - N/A   Mostly Cloudy
2:30 AM 55.4 °F 50.0 °F 82% 29.98 in 6.2 mi WSW 4.6 mph - N/A   Mostly Cloudy
3:00 AM 55.4 °F 50.0 °F 82% 29.98 in 6.2 mi West 8.1 mph - N/A   Mostly Cloudy
3:30 AM 55.4 °F 50.0 °F 82% 29.98 in 6.2 mi West 8.1 mph - N/A   Mostly Cloudy
4:00 AM 55.4 °F 51.8 °F 88% 29.98 in 6.2 mi WSW 6.9 mph - N/A   Mostly Cloudy
4:30 AM 55.4 °F 51.8 °F 88% 29.98 in 6.2 mi WSW 6.9 mph - N/A   Mostly Cloudy
5:00 AM 55.4 °F 51.8 °F 88% 29.98 in 6.2 mi WSW 6.9 mph - N/A   Mostly Cloudy
5:30 AM 55.4 °F 51.8 °F 88% 29.98 in 6.2 mi WSW 6.9 mph - N/A   Mostly Cloudy
6:00 AM 55.4 °F 51.8 °F 88% 29.98 in 6.2 mi WSW 8.1 mph - N/A   Mostly Cloudy
6:30 AM 55.4 °F 51.8 °F 88% 29.98 in 6.2 mi WSW 8.1 mph - N/A   Mostly Cloudy
7:00 AM 56 °F 52 °F 82% 29.99 in 19 mi SW 8.9 mph - -   Mostly Cloudy
7:00 AM 55.4 °F 51.8 °F 88% 29.98 in 6.2 mi SW 9.2 mph - N/A   Mostly Cloudy
7:30 AM 55.4 °F 51.8 °F 88% 29.98 in 6.2 mi SW 9.2 mph - N/A   Mostly Cloudy
8:00 AM 57.2 °F 53.6 °F 88% 29.98 in 6.2 mi SW 9.2 mph - N/A   Mostly Cloudy
8:30 AM 57.2 °F 53.6 °F 88% 29.98 in 6.2 mi SW 8.1 mph - N/A   Mostly Cloudy
9:00 AM 59.0 °F 53.6 °F 82% 29.98 in 6.2 mi SW 11.5 mph - N/A   Mostly Cloudy
9:30 AM 57.2 °F 53.6 °F 88% 29.98 in 6.2 mi SW 12.7 mph - N/A Rain Light Rain Showers
10:00 AM 59.0 °F 53.6 °F 82% 29.98 in 6.2 mi SW 9.2 mph - N/A   Mostly Cloudy
10:30 AM 59.0 °F 53.6 °F 82% 29.98 in 6.2 mi SW 9.2 mph - N/A   Mostly Cloudy
11:00 AM 60.8 °F 53.6 °F 77% 29.98 in 6.2 mi SW 10.4 mph - N/A   Mostly Cloudy
11:30 AM 60.8 °F 51.8 °F 72% 29.98 in 6.2 mi SW 10.4 mph - N/A   Mostly Cloudy
12:00 PM 60.8 °F 51.8 °F 72% 29.98 in 6.2 mi SW 8.1 mph - N/A   Mostly Cloudy
12:30 PM 62.6 °F 51.8 °F 68% 29.98 in 6.2 mi SW 9.2 mph - N/A   Mostly Cloudy
1:00 PM 62 °F 51 °F 57% 29.98 in 31 mi SW 11.2 mph - -   Partly Cloudy
1:00 PM 62.6 °F 51.8 °F 68% 29.98 in 6.2 mi SW 10.4 mph - N/A   Mostly Cloudy
1:30 PM 60.8 °F 50.0 °F 68% 29.98 in 6.2 mi West 9.2 mph - N/A   Mostly Cloudy
2:00 PM 64.4 °F 51.8 °F 64% 29.98 in 6.2 mi SW 4.6 mph - N/A   Mostly Cloudy
2:30 PM 64.4 °F 50.0 °F 59% 29.95 in 6.2 mi SSW 6.9 mph - N/A   Mostly Cloudy
3:00 PM 64.4 °F 51.8 °F 64% 29.95 in 6.2 mi South 8.1 mph - N/A   Mostly Cloudy
3:30 PM 66.2 °F 50.0 °F 56% 29.95 in 6.2 mi South 9.2 mph - N/A   Mostly Cloudy
4:00 PM 66.2 °F 50.0 °F 56% 29.92 in 6.2 mi SE 8.1 mph - N/A   Mostly Cloudy
4:30 PM 66.2 °F 51.8 °F 60% 29.92 in 6.2 mi SE 11.5 mph - N/A   Mostly Cloudy
5:00 PM 64.4 °F 55.4 °F 73% 29.92 in 6.2 mi SE 12.7 mph - N/A   Mostly Cloudy
5:30 PM 64.4 °F 50.0 °F 59% 29.92 in 6.2 mi ESE 8.1 mph - N/A   Mostly Cloudy
6:00 PM 64.4 °F 53.6 °F 68% 29.92 in 6.2 mi South 11.5 mph - N/A   Mostly Cloudy
6:30 PM 64.4 °F 53.6 °F 68% 29.92 in 6.2 mi South 8.1 mph - N/A   Mostly Cloudy
7:00 PM 65 °F 52 °F 54% 29.92 in 31 mi SSE 8.9 mph - -   Partly Cloudy
7:00 PM 66.2 °F 51.8 °F 60% 29.92 in 6.2 mi SSE 9.2 mph - N/A   Mostly Cloudy
7:30 PM 62.6 °F 51.8 °F 68% 29.92 in 6.2 mi SSE 10.4 mph - N/A   Mostly Cloudy
8:00 PM 62.6 °F 51.8 °F 68% 29.92 in 6.2 mi SSE 8.1 mph - N/A   Mostly Cloudy
8:30 PM 62.6 °F 51.8 °F 68% 29.92 in 6.2 mi South 8.1 mph - N/A   Mostly Cloudy
9:00 PM 62.6 °F 51.8 °F 68% 29.92 in 6.2 mi South 6.9 mph - N/A   Mostly Cloudy
9:30 PM 60.8 °F 51.8 °F 72% 29.92 in 6.2 mi South 6.9 mph - N/A   Mostly Cloudy
10:00 PM 59.0 °F 51.8 °F 77% 29.92 in 6.2 mi South 5.8 mph - N/A   Mostly Cloudy
10:30 PM 57.2 °F 50.0 °F 77% 29.95 in 6.2 mi Variable 3.5 mph - N/A   Mostly Cloudy
11:00 PM 57.2 °F 50.0 °F 77% 29.95 in 6.2 mi South 4.6 mph - N/A   Mostly Cloudy
11:30 PM 57.2 °F 50.0 °F 77% 29.95 in 6.2 mi SE 3.5 mph - N/A   Mostly Cloudy